• In Belarus
  • List of Countries
  • For 7 days
  • Water Temperature
  • Weather Map
  • Weather Widgets
  • user-avatar
    Login

    Hourly Weather Canberra

    Today, 13 November, Wednesday

    Time Temperature Precipitation Wind Pressure Humidity
    00:00 +7°C° 0 mm 3 mps 705 mmHg 63%
    01:00 +5°C° 0 mm 3 mps 705 mmHg 66%
    02:00 +4°C° 0 mm 3 mps 705 mmHg 67%
    03:00 +4°C° 0 mm 3 mps 705 mmHg 68%
    04:00 +3°C° 0 mm 3 mps 705 mmHg 69%
    05:00 +4°C° 0 mm 3 mps 706 mmHg 62%
    06:00 +5°C° 0 mm 3 mps 707 mmHg 55%
    07:00 +8°C° 0 mm 2 mps 707 mmHg 48%
    08:00 +10°C° 0 mm 3 mps 707 mmHg 41%
    09:00 +12°C° 0 mm 3 mps 707 mmHg 34%
    10:00 +16°C° 0 mm 3 mps 707 mmHg 27%
    11:00 +17°C° 0 mm 4 mps 707 mmHg 26%
    12:00 +17°C° 0 mm 5 mps 707 mmHg 25%
    13:00 +20°C° 0 mm 6 mps 707 mmHg 23%
    14:00 +19°C° 0 mm 6 mps 706 mmHg 27%
    15:00 +18°C° 0 mm 7 mps 706 mmHg 30%
    16:00 +17°C° 0 mm 7 mps 706 mmHg 33%
    17:00 +15°C° 0 mm 6 mps 706 mmHg 40%
    18:00 +13°C° 0 mm 5 mps 706 mmHg 47%
    19:00 +11°C° 0 mm 4 mps 707 mmHg 54%
    20:00 +10°C° 0 mm 3 mps 707 mmHg 58%
    21:00 +9°C° 0 mm 3 mps 707 mmHg 61%
    22:00 +9°C° 0 mm 2 mps 708 mmHg 64%
    23:00 +8°C° 0 mm 2 mps 707 mmHg 67%

    Tomorrow, 14 November, Thursday

    Time Temperature Precipitation Wind Pressure Humidity
    00:00 +8°C° 0 mm 2 mps 707 mmHg 70%
    01:00 +7°C° 0 mm 2 mps 707 mmHg 74%
    02:00 +7°C° 0 mm 2 mps 707 mmHg 79%
    03:00 +6°C° 0 mm 2 mps 707 mmHg 85%
    04:00 +6°C° 0 mm 1 mps 707 mmHg 91%
    05:00 +8°C° 0 mm 1 mps 707 mmHg 82%
    06:00 +10°C° 0 mm 1 mps 708 mmHg 74%
    07:00 +12°C° 0 mm 1 mps 709 mmHg 66%
    08:00 +15°C° 0 mm 2 mps 709 mmHg 57%
    09:00 +18°C° 0 mm 2 mps 709 mmHg 48%
    10:00 +20°C° 0 mm 3 mps 709 mmHg 39%
    11:00 +21°C° 0 mm 4 mps 708 mmHg 37%
    12:00 +22°C° 0 mm 5 mps 708 mmHg 36%
    13:00 +23°C° 0 mm 6 mps 708 mmHg 34%
    14:00 +23°C° 0 mm 6 mps 707 mmHg 36%
    15:00 +22°C° 0 mm 6 mps 707 mmHg 38%
    16:00 +22°C° 0 mm 6 mps 706 mmHg 40%
    17:00 +20°C° 0 mm 5 mps 707 mmHg 48%
    18:00 +17°C° 0 mm 4 mps 707 mmHg 56%
    19:00 +14°C° 0 mm 3 mps 707 mmHg 64%
    20:00 +13°C° 0 mm 3 mps 707 mmHg 70%
    21:00 +13°C° 0 mm 2 mps 707 mmHg 75%
    22:00 +10°C° 0 mm 2 mps 707 mmHg 81%
    23:00 +10°C° 0 mm 2 mps 706 mmHg 82%

    Day after tomorrow, 15 November, Friday

    Time Temperature Precipitation Wind Pressure Humidity
    00:00 +9°C° 0 mm 2 mps 706 mmHg 83%
    01:00 +9°C° 0 mm 2 mps 705 mmHg 83%
    02:00 +9°C° 0 mm 2 mps 705 mmHg 81%
    03:00 +8°C° 0 mm 2 mps 705 mmHg 79%
    04:00 +8°C° 0 mm 2 mps 705 mmHg 78%
    05:00 +10°C° 0 mm 3 mps 705 mmHg 70%
    06:00 +12°C° 0 mm 4 mps 705 mmHg 62%
    07:00 +14°C° 0 mm 5 mps 706 mmHg 54%
    08:00 +16°C° 0 mm 6 mps 706 mmHg 47%
    09:00 +19°C° 0 mm 6 mps 706 mmHg 41%
    10:00 +21°C° 0 mm 7 mps 706 mmHg 35%
    11:00 +22°C° 0 mm 7 mps 706 mmHg 32%
    12:00 +23°C° 0 mm 7 mps 705 mmHg 30%
    13:00 +23°C° 0 mm 7 mps 705 mmHg 27%
    14:00 +23°C° 0 mm 7 mps 705 mmHg 28%
    15:00 +23°C° 0 mm 7 mps 705 mmHg 28%
    16:00 +22°C° 0 mm 7 mps 705 mmHg 28%
    17:00 +20°C° 0 mm 5 mps 705 mmHg 34%
    18:00 +17°C° 0 mm 4 mps 705 mmHg 41%
    19:00 +14°C° 0 mm 3 mps 706 mmHg 47%
    20:00 +13°C° 0 mm 2 mps 706 mmHg 56%
    21:00 +12°C° 0 mm 1 mps 706 mmHg 63%
    22:00 +10°C° 0 mm 1 mps 707 mmHg 70%
    23:00 +8°C° 0 mm 0 mps 706 mmHg 73%

    16 November, Saturday

    Time Temperature Precipitation Wind Pressure Humidity
    00:00 +8°C° 0 mm 0 mps 706 mmHg 77%
    01:00 +7°C° 0 mm 0 mps 706 mmHg 80%
    02:00 +6°C° 0 mm 0 mps 706 mmHg 82%
    03:00 +7°C° 0 mm 1 mps 706 mmHg 84%
    04:00 +7°C° 0 mm 1 mps 706 mmHg 87%
    05:00 +9°C° 0 mm 1 mps 707 mmHg 78%
    06:00 +11°C° 0 mm 1 mps 708 mmHg 69%
    07:00 +13°C° 0 mm 1 mps 708 mmHg 60%
    08:00 +15°C° 0 mm 2 mps 708 mmHg 50%
    09:00 +18°C° 0 mm 2 mps 709 mmHg 39%
    10:00 +20°C° 0 mm 3 mps 709 mmHg 29%
    11:00 +21°C° 0 mm 4 mps 709 mmHg 25%
    12:00 +22°C° 0 mm 4 mps 709 mmHg 22%
    13:00 +25°C° 0 mm 5 mps 708 mmHg 18%
    14:00 +23°C° 0 mm 5 mps 708 mmHg 19%
    15:00 +22°C° 0 mm 5 mps 708 mmHg 21%
    16:00 +22°C° 0 mm 5 mps 708 mmHg 22%
    17:00 +19°C° 0 mm 4 mps 708 mmHg 31%
    18:00 +16°C° 0 mm 3 mps 709 mmHg 40%
    19:00 +14°C° 0 mm 2 mps 709 mmHg 49%
    20:00 +13°C° 0 mm 2 mps 709 mmHg 61%
    21:00 +12°C° 0 mm 2 mps 709 mmHg 73%
    22:00 +10°C° 0 mm 2 mps 710 mmHg 85%
    23:00 +9°C° 0 mm 2 mps 709 mmHg 89%

    17 November, Sunday

    Time Temperature Precipitation Wind Pressure Humidity
    00:00 +10°C° 0 mm 1 mps 709 mmHg 92%
    01:00 +10°C° 0 mm 1 mps 709 mmHg 95%
    02:00 +10°C° 0.1 mm 1 mps 709 mmHg 95%
    03:00 +10°C° 0.1 mm 1 mps 709 mmHg 95%
    04:00 +11°C° 0.1 mm 1 mps 709 mmHg 95%
    05:00 +12°C° 0.2 mm 1 mps 709 mmHg 92%
    06:00 +12°C° 0.2 mm 1 mps 709 mmHg 90%
    07:00 +13°C° 0.2 mm 1 mps 709 mmHg 87%
    08:00 +15°C° 0.3 mm 1 mps 709 mmHg 79%
    09:00 +16°C° 0.3 mm 1 mps 709 mmHg 72%
    10:00 +17°C° 0.3 mm 2 mps 710 mmHg 64%
    11:00 +17°C° 0.4 mm 2 mps 709 mmHg 64%
    12:00 +17°C° 0.4 mm 3 mps 709 mmHg 63%
    13:00 +18°C° 0.4 mm 4 mps 709 mmHg 63%
    14:00 +17°C° 0.4 mm 4 mps 708 mmHg 65%
    15:00 +17°C° 0.4 mm 4 mps 708 mmHg 67%
    16:00 +15°C° 0.4 mm 4 mps 708 mmHg 69%
    17:00 +14°C° 0.1 mm 4 mps 709 mmHg 75%
    18:00 +12°C° 0.1 mm 4 mps 709 mmHg 80%
    19:00 +10°C° 0.1 mm 3 mps 710 mmHg 85%
    20:00 +10°C° 0 mm 3 mps 710 mmHg 88%
    21:00 +9°C° 0 mm 2 mps 710 mmHg 91%
    22:00 +9°C° 0 mm 2 mps 711 mmHg 94%
    23:00 +10°C° 0 mm 1 mps 711 mmHg 93%

    18 November, Monday

    Time Temperature Precipitation Wind Pressure Humidity
    00:00 +10°C° 0 mm 1 mps 710 mmHg 92%
    01:00 +11°C° 0 mm 1 mps 710 mmHg 91%
    02:00 +10°C° 0 mm 1 mps 710 mmHg 91%
    03:00 +10°C° 0 mm 1 mps 710 mmHg 92%
    04:00 +10°C° 0 mm 1 mps 710 mmHg 92%
    05:00 +11°C° 0 mm 1 mps 710 mmHg 88%
    06:00 +12°C° 0 mm 1 mps 710 mmHg 83%
    07:00 +13°C° 0 mm 1 mps 710 mmHg 78%
    08:00 +15°C° 0 mm 1 mps 710 mmHg 67%
    09:00 +18°C° 0 mm 2 mps 710 mmHg 55%
    10:00 +20°C° 0 mm 2 mps 710 mmHg 44%
    11:00 +21°C° 0 mm 2 mps 710 mmHg 39%
    12:00 +24°C° 0 mm 3 mps 709 mmHg 34%
    13:00 +25°C° 0 mm 3 mps 709 mmHg 29%
    14:00 +25°C° 0 mm 3 mps 708 mmHg 28%
    15:00 +25°C° 0 mm 4 mps 708 mmHg 28%
    16:00 +25°C° 0 mm 4 mps 707 mmHg 27%
    17:00 +22°C° 0 mm 4 mps 707 mmHg 35%
    18:00 +19°C° 0 mm 3 mps 707 mmHg 42%
    19:00 +17°C° 0 mm 2 mps 707 mmHg 49%
    20:00 +15°C° 0 mm 2 mps 707 mmHg 55%
    21:00 +14°C° 0 mm 1 mps 707 mmHg 60%
    22:00 +12°C° 0 mm 1 mps 707 mmHg 65%
    23:00 +12°C° 0 mm 1 mps 707 mmHg 68%
    Show more